[[{"header":{"parameterUnit":"m.s-1","parameterCategory":1,"la1":30.2991,"la2":30.254,"lo1":-89.0895,"lo2":-89.0444,"dy":0.0017,"dx":0.0017,"nx":28,"ny":28,"refTime":"2025-12-01T03:00:00:Z","depth":0,"parameterNumber":2,"parameterNumberName":"U-component_of_WINDS"},"data":[0,0,0,0,0,0,0,0,0,0,0,0,0,0,0,0,0,0,0,0,0,0,0,0,0,0,0,0,0,0,0,0,0,0,0,0,0,0,0,0,0,0,0,0,0,0,0,0,0,0,0,0,0,0,0,0,0,0,-2.474,-2.474,0,-2.4731,-2.4731,-2.4731,-2.4656,-2.4654,-2.4652,-2.465,-2.4644,-2.4646,-2.4648,0,0,0,0,0,0,0,0,0,0,0,0,0,-2.4693,-2.4694,-2.474,-2.474,-2.474,-2.4731,-2.4731,-2.4731,-2.4656,-2.4654,-2.4651,-2.4649,-2.4644,-2.4646,-2.4648,0,0,0,0,0,0,0,0,0,0,0,0,0,-2.4702,-2.4694,-2.474,-2.4701,-2.4698,-2.4732,-2.4731,-2.4731,-2.4656,-2.4654,-2.4651,-2.4648,-2.4643,-2.4646,-2.4648,-2.472,0,0,-2.4655,-2.4656,0,0,0,0,0,0,0,0,-2.4701,-2.4704,-2.4707,-2.4704,-2.47,-2.4692,-2.4712,-2.4727,-2.4657,-2.4672,-2.465,-2.4647,-2.4663,-2.4663,-2.4668,-2.4719,-2.4719,-2.4656,-2.4657,-2.4658,-2.4659,0,0,0,0,0,0,0,-2.4701,-2.4704,-2.4737,-2.4707,-2.4703,-2.4685,-2.4683,-2.4715,-2.4684,-2.4671,-2.4665,-2.4665,-2.466,-2.4666,-2.4667,-2.4719,-2.4655,-2.4658,-2.4659,-2.466,-2.4827,-2.483,0,0,0,0,0,0,-2.4705,-2.4704,-2.4737,-2.4736,-2.4694,-2.4688,-2.4686,-2.4697,-2.4683,-2.4678,-2.4667,-2.4662,-2.4663,-2.4665,-2.4667,-2.4749,-2.4658,-2.466,-2.4662,-2.4824,-2.4828,-2.4831,0,0,0,0,0,0,-2.4705,-2.4709,-2.4737,-2.4718,-2.4721,-2.4692,-2.4705,-2.4699,-2.4704,-2.468,-2.4675,-2.4679,-2.4661,-2.4663,-2.4706,-2.4748,-2.4661,-2.4664,-2.4821,-2.4825,-2.483,-2.4915,0,0,0,0,0,0,-2.4704,-2.4709,-2.4736,-2.472,-2.4722,-2.4777,-2.4708,-2.47,-2.4708,-2.47,-2.469,-2.4685,-2.4659,-2.4703,-2.4709,-2.475,-2.4665,-2.4817,-2.4823,-2.4828,-2.4908,-2.4922,-2.4933,0,0,0,0,0,-2.4702,-2.4761,-2.4738,-2.4742,-2.4755,-2.478,-2.4781,-2.4749,-2.4712,-2.4739,-2.4723,-2.4686,-2.4742,-2.4708,-2.4714,-2.4756,-2.4814,-2.4821,-2.4828,-2.4903,-2.4919,-2.4933,0,0,0,0,0,0,-2.4785,-2.4758,-2.4732,-2.4787,-2.4786,-2.4767,-2.48,-2.4767,-2.4777,-2.477,-2.473,-2.4728,-2.4777,-2.4771,-2.4734,-2.4824,-2.4772,-2.478,-2.4827,-2.4842,-2.4854,-2.4855,-2.4667,0,0,0,0,0,-2.4809,-2.4831,-2.4807,-2.4858,-2.4859,-2.4829,-2.4839,-2.4814,-2.4812,-2.4811,-2.4799,-2.4798,-2.4816,-2.4828,-2.4843,-2.4906,-2.4903,-2.4938,-2.4951,-2.4961,-2.4969,-2.5001,-2.5017,-2.4853,-2.4853,-2.4853,0,0,-2.4861,-2.4849,-2.4865,-2.4874,-2.487,-2.4894,-2.483,-2.4858,-2.4875,-2.4816,-2.4855,-2.4846,-2.4843,-2.4896,-2.4919,-2.4892,-2.5013,-2.497,-2.4978,-2.498,-2.501,-2.5025,-2.5039,-2.4858,-2.4857,-2.4856,0,0,-2.4966,-2.4959,-2.5001,-2.4998,-2.4992,-2.4971,-2.4981,-2.4966,-2.4958,-2.4996,-2.4952,-2.4972,-2.5003,-2.5003,-2.5007,-2.511,-2.5076,-2.5116,-2.5182,-2.5214,-2.5226,-2.5238,-2.5275,-2.5288,-2.5123,-2.5124,-2.5124,0,-2.5031,-2.5065,-2.5027,-2.5057,-2.5063,-2.5008,-2.5049,-2.5048,-2.5049,-2.5054,-2.5023,-2.506,-2.5054,-2.5107,-2.5131,-2.5136,-2.5147,-2.5117,-2.5227,-2.5238,-2.5248,-2.5283,-2.5297,-2.5129,-2.5128,-2.5128,-2.5127,0,-2.5145,-2.5168,-2.5203,-2.5202,-2.5211,-2.5248,-2.5215,-2.5229,-2.5203,-2.5186,-2.5226,-2.5216,-2.5228,-2.5238,-2.5214,-2.5287,-2.527,-2.5234,-2.5181,-2.5269,-2.5301,-2.5314,-2.5136,-2.5134,-2.5132,-2.5131,0,0,-2.5305,-2.528,-2.5294,-2.5292,-2.5281,-2.5299,-2.5332,-2.5342,-2.5355,-2.5356,-2.5384,-2.541,-2.5376,-2.5381,-2.5355,-2.5383,-2.5465,-2.5343,-2.5343,-2.5367,-2.5545,-2.5573,-2.5589,-2.5442,-2.5444,-2.5446,-2.5546,0,-2.5406,-2.5461,-2.5427,-2.5488,-2.5509,-2.5456,-2.5485,-2.5481,-2.5466,-2.5482,-2.5465,-2.5485,-2.5439,-2.5441,-2.5466,-2.545,-2.5501,-2.5442,-2.5468,-2.5469,-2.5471,-2.5606,-2.5635,-2.573,-2.5558,-2.556,-2.5561,0,-2.5533,-2.5538,-2.56,-2.5583,-2.5591,-2.5617,-2.5623,-2.5639,-2.5633,-2.562,-2.5624,-2.5591,-2.5623,-2.5569,-2.5613,-2.5574,-2.5582,-2.5576,-2.5578,-2.558,-2.5522,-2.5612,-2.5759,-2.5773,-2.5581,-2.5579,-2.5578,0,-2.5644,-2.5666,-2.5705,-2.5706,-2.5687,-2.5707,-2.57,-2.5691,-2.5699,-2.5704,-2.5709,-2.5718,-2.5724,-2.5732,-2.5702,-2.5666,-2.575,-2.5694,-2.574,-2.5741,-2.5761,-2.5761,-2.5912,-2.5766,-2.5765,-2.5765,-2.5765,0,-2.5761,-2.5802,-2.5755,-2.578,-2.5823,-2.5783,-2.5827,-2.5815,-2.5807,-2.5829,-2.5784,-2.5805,-2.5764,-2.5782,-2.5759,-2.5798,-2.5801,-2.5791,-2.5785,-2.5796,-2.5797,-2.5802,-2.5795,-2.5769,-2.5768,-2.5767,-2.5767,0,-2.5893,-2.5863,-2.5903,-2.5881,-2.5876,-2.5909,-2.589,-2.5912,-2.5893,-2.5921,-2.5925,-2.5895,-2.5913,-2.5883,-2.5899,-2.5883,-2.5938,-2.5921,-2.594,-2.5935,-2.5983,-2.5979,-2.6144,-2.6163,-2.6004,-2.6005,-2.6006,0,-2.5971,-2.6,-2.598,-2.5991,-2.5986,-2.6004,-2.6011,-2.5972,-2.5981,-2.5976,-2.5999,-2.6013,-2.6022,-2.6053,-2.6033,-2.6044,-2.6027,-2.6084,-2.6029,-2.6039,-2.6029,-2.6028,-2.603,-2.6096,-2.6098,-2.61,-2.6101,0,-2.6112,-2.6095,-2.6106,-2.6112,-2.6121,-2.6124,-2.6124,-2.6135,-2.6094,-2.6107,-2.6124,-2.6131,-2.6145,-2.6159,-2.6165,-2.6158,-2.6124,-2.6118,-2.6129,-2.6141,-2.6151,-2.6147,-2.5971,-2.6115,-2.6113,-2.6112,-2.6112,-2.6111,-2.622,-2.6243,-2.6232,-2.6245,-2.6241,-2.6241,-2.626,-2.6242,-2.6255,-2.6262,-2.6239,-2.6261,-2.6254,-2.6257,-2.6254,-2.6272,-2.6247,-2.6263,-2.6268,-2.6273,-2.628,-2.6147,-2.6273,-2.6272,-2.6272,-2.6271,-2.6271,0,-2.6359,-2.6348,-2.6361,-2.6361,-2.6372,-2.6335,-2.6333,-2.6345,-2.6364,-2.6359,-2.6368,-2.6387,-2.6401,-2.6381,-2.6391,-2.6408,-2.6393,-2.6412,-2.6411,-2.641,-2.6302,-2.6291,-2.6425,-2.6425,-2.6425,-2.6425,-2.6425,-2.6425,-2.6433,-2.647,-2.6451,-2.6485,-2.6474,-2.6495,-2.6496,-2.6496,-2.6492,-2.6515,-2.6525,-2.6511,-2.6501,-2.6509,-2.6519,-2.6513,-2.6519,-2.6545,-2.6534,-2.6433,-2.6418,-2.6404,-2.6393,-2.6546,-2.6547,-2.664,-2.6641,-2.6642]},{"header":{"parameterUnit":"m.s-1","parameterCategory":1,"la1":30.2991,"la2":30.254,"lo1":-89.0895,"lo2":-89.0444,"dy":0.0017,"dx":0.0017,"nx":28,"ny":28,"refTime":"2025-12-01T03:00:00:Z","depth":0,"parameterNumber":3,"parameterNumberName":"V-component_of_WINDS"},"data":[0,0,0,0,0,0,0,0,0,0,0,0,0,0,0,0,0,0,0,0,0,0,0,0,0,0,0,0,0,0,0,0,0,0,0,0,0,0,0,0,0,0,0,0,0,0,0,0,0,0,0,0,0,0,0,0,0,0,-6.8125,-6.8126,0,-6.8206,-6.8207,-6.8208,-6.8133,-6.813,-6.8127,-6.8124,-6.8202,-6.8206,-6.8211,0,0,0,0,0,0,0,0,0,0,0,0,0,-6.7898,-6.7903,-6.8125,-6.8126,-6.8127,-6.8206,-6.8207,-6.8208,-6.8133,-6.813,-6.8126,-6.8123,-6.82,-6.8206,-6.8212,0,0,0,0,0,0,0,0,0,0,0,0,0,-6.799,-6.7904,-6.8125,-6.8099,-6.8098,-6.8206,-6.8207,-6.8209,-6.8134,-6.813,-6.8125,-6.8121,-6.8198,-6.8205,-6.8212,-6.8348,0,0,-6.8235,-6.8238,0,0,0,0,0,0,0,0,-6.7985,-6.7998,-6.8102,-6.8101,-6.81,-6.8155,-6.8156,-6.8255,-6.8135,-6.812,-6.8124,-6.8119,-6.8189,-6.8197,-6.8222,-6.8352,-6.8355,-6.8235,-6.824,-6.8243,-6.8245,0,0,0,0,0,0,0,-6.7978,-6.7994,-6.8157,-6.8103,-6.8102,-6.8082,-6.809,-6.8174,-6.8179,-6.8121,-6.8116,-6.8127,-6.8188,-6.8215,-6.8223,-6.8356,-6.8235,-6.8242,-6.8246,-6.8249,-6.86,-6.8605,0,0,0,0,0,0,-6.7976,-6.7989,-6.8154,-6.8159,-6.803,-6.8089,-6.8098,-6.8142,-6.8178,-6.8179,-6.8131,-6.8123,-6.8205,-6.8215,-6.8226,-6.8387,-6.8243,-6.825,-6.8254,-6.8595,-6.8601,-6.8607,0,0,0,0,0,0,-6.7971,-6.7991,-6.8151,-6.8073,-6.8092,-6.8098,-6.8147,-6.8146,-6.8173,-6.8185,-6.8185,-6.8158,-6.8202,-6.8215,-6.8318,-6.8388,-6.8253,-6.826,-6.8589,-6.8597,-6.8604,-6.871,0,0,0,0,0,0,-6.7965,-6.799,-6.8043,-6.8075,-6.8096,-6.8245,-6.8152,-6.815,-6.8187,-6.8177,-6.8211,-6.8212,-6.8199,-6.8308,-6.8326,-6.8396,-6.8265,-6.8583,-6.8593,-6.8602,-6.87,-6.872,-6.8737,0,0,0,0,0,-6.7957,-6.8069,-6.8046,-6.8067,-6.8163,-6.8249,-6.8261,-6.8245,-6.8193,-6.8245,-6.8253,-6.8211,-6.8378,-6.8319,-6.8339,-6.8412,-6.8579,-6.859,-6.8601,-6.8692,-6.8716,-6.8737,0,0,0,0,0,0,-6.8043,-6.8072,-6.8048,-6.8173,-6.821,-6.8236,-6.8302,-6.8272,-6.8322,-6.8311,-6.8288,-6.8296,-6.8405,-6.8418,-6.8353,-6.8545,-6.8469,-6.8485,-6.8532,-6.8555,-6.8573,-6.8567,-6.8272,0,0,0,0,0,-6.8077,-6.8146,-6.8167,-6.8275,-6.8295,-6.8296,-6.8332,-6.8317,-6.8353,-6.8367,-6.8382,-6.8417,-6.8476,-6.8516,-6.8572,-6.8702,-6.8707,-6.8762,-6.878,-6.8795,-6.8809,-6.8877,-6.8901,-6.8643,-6.8643,-6.8643,0,0,-6.8147,-6.8171,-6.8216,-6.8293,-6.832,-6.839,-6.8309,-6.8386,-6.8437,-6.8378,-6.8477,-6.8489,-6.8526,-6.8643,-6.8695,-6.8657,-6.8881,-6.8809,-6.8821,-6.8827,-6.8891,-6.8915,-6.8937,-6.8651,-6.8649,-6.8648,0,0,-6.831,-6.8337,-6.843,-6.8458,-6.8499,-6.8499,-6.8521,-6.8553,-6.8559,-6.8658,-6.8615,-6.8674,-6.8778,-6.8806,-6.8834,-6.9008,-6.8971,-6.9027,-6.9123,-6.919,-6.921,-6.9228,-6.9289,-6.9312,-6.904,-6.904,-6.904,0,-6.8392,-6.8498,-6.8481,-6.8562,-6.8597,-6.8548,-6.8641,-6.8669,-6.8725,-6.8749,-6.8707,-6.8837,-6.8858,-6.898,-6.9023,-6.9047,-6.907,-6.9023,-6.9209,-6.9226,-6.9243,-6.9301,-6.9324,-6.9047,-6.9046,-6.9045,-6.9045,0,-6.8595,-6.8669,-6.8739,-6.8798,-6.884,-6.8927,-6.8921,-6.8966,-6.8947,-6.895,-6.9051,-6.9075,-6.9134,-6.9162,-6.9144,-6.9282,-6.9257,-6.9213,-6.9136,-6.9274,-6.9329,-6.9351,-6.9056,-6.9054,-6.9052,-6.905,0,0,-6.8815,-6.8864,-6.889,-6.8915,-6.8957,-6.9013,-6.9096,-6.9157,-6.9195,-6.9235,-6.9304,-6.9393,-6.9352,-6.9383,-6.9367,-6.9426,-6.9562,-6.9374,-6.9374,-6.9408,-6.9714,-6.9747,-6.9774,-6.9538,-6.9542,-6.9545,-6.9711,0,-6.898,-6.9128,-6.9115,-6.9254,-6.9322,-6.9276,-6.9349,-6.9381,-6.9386,-6.9442,-6.9447,-6.9511,-6.9452,-6.947,-6.9527,-6.9534,-6.9623,-6.9521,-6.9599,-6.9603,-6.9592,-6.9802,-6.9838,-6.9993,-6.9732,-6.9735,-6.9738,0,-6.9192,-6.9243,-6.9389,-6.9421,-6.9448,-6.9514,-6.9568,-6.9623,-6.9658,-6.9657,-6.9693,-6.9667,-6.9749,-6.9671,-6.9783,-6.9714,-6.9745,-6.9753,-6.9759,-6.9765,-6.9679,-6.9814,-7.0042,-7.0065,-6.9771,-6.9769,-6.9766,0,-6.9338,-6.9442,-6.9543,-6.9566,-6.9605,-6.9652,-6.967,-6.9701,-6.9738,-6.9784,-6.9807,-6.9862,-6.9892,-6.9933,-6.9922,-6.9867,-7.0036,-6.9958,-7.0037,-7.0037,-7.0074,-7.0072,-7.0311,-7.0095,-7.0095,-7.0094,-7.0094,0,-6.9523,-6.9615,-6.9609,-6.9671,-6.9771,-6.9754,-6.9853,-6.9865,-6.9893,-6.9955,-6.9918,-6.9976,-6.9958,-7.0015,-7.0006,-7.01,-7.0113,-7.0114,-7.011,-7.0117,-7.0117,-7.0137,-7.0126,-7.01,-7.0099,-7.0098,-7.0097,0,-6.9703,-6.9703,-6.981,-6.9839,-6.9848,-6.992,-6.9944,-7.0001,-7.0003,-7.0082,-7.01,-7.0103,-7.0168,-7.0161,-7.0233,-7.0227,-7.0343,-7.0327,-7.0332,-7.0328,-7.0407,-7.04,-7.0667,-7.07,-7.0464,-7.0466,-7.0468,0,-6.9821,-6.9891,-6.9927,-6.9968,-6.9989,-7.0054,-7.0092,-7.0077,-7.0118,-7.0163,-7.0214,-7.0277,-7.0326,-7.0432,-7.0439,-7.0494,-7.0478,-7.0568,-7.0486,-7.049,-7.0479,-7.0475,-7.0481,-7.0584,-7.0586,-7.0589,-7.059,0,-7.0031,-7.0028,-7.0085,-7.0143,-7.0189,-7.0233,-7.0273,-7.0307,-7.0296,-7.0343,-7.041,-7.0449,-7.0523,-7.0585,-7.0637,-7.0652,-7.062,-7.0616,-7.0637,-7.0645,-7.0645,-7.0646,-7.0376,-7.061,-7.0608,-7.0607,-7.0606,-7.0605,-7.0183,-7.0243,-7.0278,-7.0343,-7.0372,-7.041,-7.0465,-7.0475,-7.0532,-7.0593,-7.058,-7.0655,-7.0687,-7.0753,-7.0775,-7.0832,-7.0799,-7.083,-7.0838,-7.0845,-7.0855,-7.0636,-7.0841,-7.0841,-7.084,-7.084,-7.0839,0,-7.0391,-7.0412,-7.0472,-7.0529,-7.058,-7.0546,-7.0588,-7.0632,-7.07,-7.0733,-7.0783,-7.0859,-7.0919,-7.0931,-7.0987,-7.1031,-7.1017,-7.1046,-7.1042,-7.1046,-7.0881,-7.0857,-7.1056,-7.1056,-7.1056,-7.1056,-7.1056,-7.1056,-7.0505,-7.0604,-7.0605,-7.0717,-7.0736,-7.0811,-7.0838,-7.0872,-7.0899,-7.0987,-7.1037,-7.1045,-7.1069,-7.1127,-7.1179,-7.1181,-7.1203,-7.1238,-7.1234,-7.108,-7.1058,-7.1037,-7.1015,-7.1243,-7.1244,-7.1395,-7.1396,-7.1397]}]]